Regional Weather Roundup
Issued by NWS

Home | Current Version | Previous Version | Graphics & Text | Print | Product List | Glossary On
Versions: 1 2 3 4 5 6 7 8 9 10 11 12 13 14 15 16 17 18 19 20 21 22 23 24 25 26 27 28 29 30 31 32 33 34 35 36 37 38 39 40 41 42 43 44 45 46 47 48 49 50
000
ASUS43 KLOT 051012
RWRIL

ILLINOIS REGIONAL WEATHER ROUNDUP
NATIONAL WEATHER SERVICE CHICAGO/ROMEOVILLE IL
500 AM CDT TUE MAY 05 2015

NOTE: "FAIR" INDICATES FEW OR NO CLOUDS BELOW 12,000 FEET WITH NO
SIGNIFICANT WEATHER AND/OR OBSTRUCTIONS TO VISIBILITY.

* THESE STATIONS ARE NOT UNDER NWS QUALITY CONTROL. THEY ALSO MAY NOT
  REPORT WEATHER SUCH AS PRECIPITATION OR FOG.

ILZ001-002-007-009-015-016-024-051100-
NORTHWEST ILLINOIS

CITY           SKY/WX    TMP DP  RH WIND       PRES   REMARKS
MOLINE         LGT RAIN  59  57  93 E12       30.08F FOG
STERLING*      CLOUDY    55  52  88 E9        30.16S
$$

ILZ003-004-008-010-011-017-018-051100-
NORTH CENTRAL ILLINOIS

CITY           SKY/WX    TMP DP  RH WIND       PRES   REMARKS
ROCKFORD       LGT RAIN  53  49  86 E9G23     30.20R
FREEPORT*      LGT RAIN  51  49  94 E13       30.18F
ROCHELLE*      RAIN      51  50  95 N6        30.21R
DE KALB*       LGT RAIN  50  48  95 E9        30.20S
PERU*          RAIN      53  52  95 NE9       30.18S
$$

ILZ005-006-012>014-019>023-051100-
NORTHEAST ILLINOIS

CITY           SKY/WX    TMP DP  RH WIND       PRES   REMARKS
CHICAGO-OHARE  RAIN      49  48  97 NE9       30.19F FOG
CHICAGO-MIDWAY TSTM      53  50  89 N7        30.19R FOG
AURORA         RAIN      52  48  86 NE10      30.19R FOG
LANSING*       TSTM      52  49  90 NW9       30.20R
JOLIET*        RAIN      54  52  95 E6        30.19R
WAUKEGAN       LGT RAIN  48  45  89 NE7       30.21S
DUPAGE AIRPORT RAIN      50  48  93 NE7       30.19S FOG
KANKAKEE*      CLOUDY    61  60  97 N3        30.16R
WHEELING       RAIN      49  46  90 NE13      30.20F FOG
MORRIS*        CLOUDY    53  51  95 CALM      30.17R
ROMEOVILLE*    RAIN      52  50  93 NE6       30.18S
NORTHERLY ISL    N/A     51  48  89 NW5         N/A
$$

LMZ740>746-051100-
SOUTHERN LAKE MICHIGAN

STATION/POSITION SKY/WX   TEMP    WIND        PRES    VSBY  WAVE
                          AIR SEA DIR/SP/G                  HT/PER
                          (F)     (DEG/KT/KT) (MB)    (MI)  (FT/S)
HARRISON CRIB              47     360/ 14/ 15   N/A
BURNHAM HARBOR             51      30/  7/ 20   N/A
CALUMET HARBOR             49     350/  5/  7   N/A
BURNS HARBOR               49      60/ 10/ 11 1022.0F
MICHIGAN CITY              49      30/  6/  7   N/A
MICHIGAN CITY 6N           48 50   60/  8/ 10   N/A           1
ST. JOSEPH                 49 49   10/  8/ 10   N/A           1
$$

ILZ025>027-034>036-040-047-049-050-058-095>099-051100-
WEST-CENTRAL ILLINOIS

CITY           SKY/WX    TMP DP  RH WIND       PRES   REMARKS
QUINCY         CLOUDY    63  60  90 SE7       30.10R
GALESBURG*     LGT RAIN  62  62  98 E7        30.09F
MACOMB*        CLOUDY    62  61  98 NE6       30.13R
JACKSONVILLE*  CLOUDY    64  57  78 CALM      30.13R
PITTSFIELD*    CLOUDY    65  57  74 CALM      30.13R
$$

ILZ028>032-037-038-041>044-048-051>054-059>061-051100-
CENTRAL ILLINOIS

CITY           SKY/WX    TMP DP  RH WIND       PRES   REMARKS
PONTIAC        CLOUDY    61  61  99 NE12      30.17R
BLOOMINGTON    CLOUDY    64  60  87 SW7       30.15R
DECATUR        MOCLDY    68  54  60 SW13      30.14R
PEORIA         CLOUDY    64  61  90 NE8       30.12F FOG
LACON*         LGT RAIN  57  55  94 NE3       30.15F
LINCOLN*       CLOUDY    66  59  78 CALM      30.12S
SPRINGFIELD    CLOUDY    66  55  67 SW3       30.14R
TAYLORVILLE    CLOUDY    64  54  68 S10       30.14R
$$

ILZ033-039-045-046-055>057-062-063-051100-
EAST-CENTRAL ILLINOIS

CITY           SKY/WX    TMP DP  RH WIND       PRES   REMARKS
CHAMPAIGN      MOCLDY    63  55  75 S8        30.14S
DANVILLE*      CLOUDY    60  58  96 E5        30.14S FOG
RANTOUL*       CLOUDY    64  61  91 SE7       30.14S FOG
MATTOON        MOCLDY    65  53  65 S6        30.15S
PARIS*         CLOUDY    67  55  65 SW10      30.17S
$$

ILZ079-100>102-051100-
SOUTHWEST ILLINOIS

CITY           SKY/WX    TMP DP  RH WIND       PRES   REMARKS
ALTON          MOCLDY    65  52  61 S8        30.15R
BELLEVILLE     MOCLDY    62  55  76 S1        30.14S
CAHOKIA*       MOCLDY    64  54  69 SE3       30.14S
SPARTA*        PTCLDY    63  52  68 S6        30.18S
$$

ILZ064>066-069>071-074>076-080>082-084>086-088>090-092>094-051100-
SOUTH-CENTRAL ILLINOIS

CITY           SKY/WX    TMP DP  RH WIND       PRES   REMARKS
CARBONDALE     PTCLDY    55  52  89 CALM      30.18S
CAIRO*         CLEAR     57  53  86 CALM      30.19S
EFFINGHAM*     MOCLDY    64  49  59 S3        30.18S
MARION         PTCLDY    61  54  77 S3        30.19S
MT. VERNON     PTCLDY   N/A N/A N/A CALM      30.19S
CENTRALIA*     PTCLDY    62  51  67 S8        30.17R
SALEM*         FAIR      65  53  63 S6        30.18R
METROPOLIS*    CLEAR     58  54  85 CALM      30.20S
$$

ILZ067-068-072-073-078-083-087-091-051100-
SOUTHEAST ILLINOIS

CITY           SKY/WX    TMP DP  RH WIND       PRES   REMARKS
LAWRENCEVILLE  PTCLDY    59  54  83 S7        30.19S
FLORA*         PTCLDY    62  53  73 S5        30.19R
FAIRFIELD*     PTCLDY    62  54  74 S3        30.18S
HARRISBURG*    CLEAR     59  56  91 CALM      30.20S
ROBINSON*      PTCLDY    62  53  72 S5        30.19S
CARMI*         PTCLDY    58  50  74 SE5       30.20S
$$

ABBREVIATIONS USED IN REMARKS
   TC - TEMPERATURE IN CELSIUS
  WCI - WIND CHILL INDEX
   HX - HEAT INDEX
  VSB - VISIBILITY
$$




USA.gov is the U.S. government's official web portal to all federal, state and local government web resources and services.